Location: Alafon
(8.4500°N, 4.2333°E)
Time: 18:25:10
(UTC+00:00)

A-11 Canister half - Pass Details

Date: 13 August 2021
Orbit: 1515 x 1685 km, 47.2° (Epoch: 19 September)

Event Time Altitude Azimuth Distance (km) Brightness Sun altitude
Rises 09:59:51 0° 208° (SSW) 4,652 11.3 62.9°
Reaches altitude 10° 10:02:59 10° 204° (SSW) 3,667 10.9 63.6°
Maximum altitude 10:11:54 54° 129° (SE) 1,795 10.7 65.7°
Drops below altitude 10° 10:20:55 10° 54° (NE) 3,723 11.5 67.8°
Sets 10:24:06 0° 50° (NE) 4,727 11.8 68.6°
